sat.trackr.live / text

‹ back to catalog

COSMOS 2587 (RODNIK-S *)

NORAD 63290 · 2025-054C

PAYLOAD ACTIVE UNKNOWN

§ Identity

Operator
Country
CIS
Launch date
2025-03-16
Launch site
PLMSC
Launch vehicle
Mass (kg)
RCS (m²)

External: N2YO · Heavens-Above · Gunter

§ Orbital elements

Epoch: 2026-05-25T05:24:26.123040Z

Period
115.86 min
Inclination
82.4966°
Eccentricity
0.0016182
Mean motion
12.42892187 rev/d
Perigee alt
1,481.6 km
Apogee alt
1,507.1 km
Semi-major
7,872.5 km
B*
1.9059e-4
RAAN
92.9954°
Arg perigee
63.1027°
Mean anomaly
297.1704°
Rev number
5,400

§ Raw data

COSMOS 2587 (RODNIK-S *)1 63290U 25054C   26145.22530235  .00000036  00000+0  19059-3 0  99912 63290  82.4966  92.9954 0016182  63.1027 297.1704 12.42892187 54005

JSON: /api/v1/satellites/63290 · /tle

For live sub-satellite position, see the globe view (requires WebGL).

§ Visibility from observer

Set your observer location to see the next 7 days of passes ≥ 10°. The values pass through the URL so the page stays shareable.

No JS? Fill the form by hand. The geolocation button needs JavaScript.